This is the latest recevied weather packets stored in our database for station/object IW3HBX-13. If no packets are shown the sender has not sent any weather packets the latest 1 day(s).
| Time | Temp. | Humidity | Pressure | Rain* | Wind** | Luminosity | Snow |
|---|---|---|---|---|---|---|---|
| 1777976287 | 16.67° C | 77% | 1015.3 hPa | 0.76 mm | 0 m/s | 118 W/m² | - |
| 1777975930 | 16.67° C | 79% | 1015.3 hPa | 0.76 mm | 0.45 m/s, 67° | 172 W/m² | - |
| 1777975567 | 16.67° C | 79% | 1015.2 hPa | 0.76 mm | 0.89 m/s, 67° | 157 W/m² | - |
| 1777974847 | 16.67° C | 79% | 1015.2 hPa | 0.76 mm | 0.45 m/s, 67° | 229 W/m² | - |
| 1777974490 | 16.67° C | 80% | 1015.1 hPa | 0.76 mm | 0.45 m/s, 66° | 223 W/m² | - |
| 1777974127 | 16.67° C | 78% | 1015.1 hPa | 0.51 mm | 0.89 m/s, 76° | 246 W/m² | - |
| 1777973767 | 16.67° C | 79% | 1015.1 hPa | 0.51 mm | 0 m/s | 190 W/m² | - |
| 1777973408 | 16.67° C | 79% | 1015.1 hPa | 0.51 mm | 0 m/s | 153 W/m² | - |
| 1777973050 | 16.67° C | 74% | 1015.2 hPa | 0 mm | 0 m/s | 128 W/m² | - |
| 1777972688 | 16.67° C | 75% | 1015.2 hPa | 0 mm | 0 m/s | 140 W/m² | - |
| 1777972332 | 16.67° C | 74% | 1015.2 hPa | 0 mm | 0.89 m/s, 76° | 152 W/m² | - |
| 1777971967 | 16.67° C | 75% | 1015.1 hPa | 0 mm | 0 m/s | 156 W/m² | - |
| 1777971247 | 17.22° C | 72% | 1015 hPa | 0 mm | 0 m/s | 192 W/m² | - |
| 1777970890 | 17.22° C | 74% | 1015 hPa | 0 mm | 0 m/s | 160 W/m² | - |
| 1777970527 | 16.67° C | 76% | 1015 hPa | 0 mm | 0 m/s | 134 W/m² | - |
| 1777970167 | 16.67° C | 78% | 1015.1 hPa | 0 mm | 0.45 m/s, 76° | 140 W/m² | - |
| 1777969447 | 16.67° C | 75% | 1015.1 hPa | 0 mm | 0 m/s | 150 W/m² | - |
| 1777969090 | 16.67° C | 74% | 1015.1 hPa | 0 mm | 0.45 m/s, 76° | 160 W/m² | - |
| 1777968727 | 16.67° C | 77% | 1015 hPa | 0 mm | 0.45 m/s, 76° | 131 W/m² | - |
| 1777968367 | 17.22° C | 78% | 1015.1 hPa | 0 mm | 0 m/s | 123 W/m² | - |
| 1777967647 | 16.67° C | 78% | 1015.1 hPa | 0 mm | 0 m/s | 128 W/m² | - |
| 1777967287 | 16.67° C | 78% | 1015 hPa | 0 mm | 0.45 m/s, 77° | 106 W/m² | - |
| 1777966927 | 17.22° C | 79% | 1015 hPa | 0 mm | 0 m/s | 117 W/m² | - |
| 1777966567 | 16.67° C | 79% | 1015 hPa | 0 mm | 0 m/s | 123 W/m² | - |
| 1777966207 | 16.67° C | 82% | 1014.9 hPa | 0 mm | 0.45 m/s, 73° | 114 W/m² | - |
* Rain latest hour (hover to see other rain measurements)
** Current wind speed in m/s (hover to see current wind gust speed)